• In Russia
  • List of Countries
  • For 7 days
  • Water Temperature
  • Satellite Maps
  • Weather Map
  • Weather Widgets
  • user-avatar
    Login

    Hourly Weather Dahab

    Today, 25 May, Friday

    Time Temperature Precipitation Wind Pressure Humidity
    00:00 +30°C° 0 mm 4 mps 712 mmHg 27%
    01:00 +29°C° 0 mm 4 mps 711 mmHg 27%
    02:00 +29°C° 0 mm 3 mps 711 mmHg 28%
    03:00 +28°C° 0 mm 3 mps 711 mmHg 29%
    04:00 +28°C° 0 mm 3 mps 711 mmHg 29%
    05:00 +28°C° 0 mm 3 mps 711 mmHg 30%
    06:00 +29°C° 0 mm 3 mps 711 mmHg 28%
    07:00 +30°C° 0 mm 3 mps 711 mmHg 27%
    08:00 +31°C° 0 mm 3 mps 712 mmHg 26%
    09:00 +31°C° 0 mm 3 mps 712 mmHg 25%
    10:00 +33°C° 0 mm 3 mps 712 mmHg 24%
    11:00 +34°C° 0 mm 2 mps 711 mmHg 24%
    12:00 +34°C° 0 mm 2 mps 711 mmHg 24%
    13:00 +35°C° 0 mm 3 mps 711 mmHg 24%
    14:00 +35°C° 0 mm 3 mps 710 mmHg 24%
    15:00 +35°C° 0 mm 3 mps 710 mmHg 24%
    16:00 +35°C° 0 mm 3 mps 710 mmHg 24%
    17:00 +35°C° 0 mm 4 mps 710 mmHg 24%
    18:00 +34°C° 0 mm 3 mps 710 mmHg 24%
    19:00 +33°C° 0 mm 3 mps 710 mmHg 25%
    20:00 +32°C° 0 mm 2 mps 710 mmHg 26%
    21:00 +31°C° 0 mm 2 mps 710 mmHg 26%
    22:00 +31°C° 0 mm 2 mps 710 mmHg 27%
    23:00 +31°C° 0 mm 2 mps 710 mmHg 27%

    Tomorrow, 26 May, Saturday

    Time Temperature Precipitation Wind Pressure Humidity
    00:00 +30°C° 0 mm 2 mps 710 mmHg 28%
    01:00 +30°C° 0 mm 3 mps 710 mmHg 28%
    02:00 +29°C° 0 mm 3 mps 710 mmHg 29%
    03:00 +29°C° 0 mm 3 mps 710 mmHg 30%
    04:00 +29°C° 0 mm 3 mps 709 mmHg 30%
    05:00 +28°C° 0 mm 3 mps 709 mmHg 31%
    06:00 +29°C° 0 mm 3 mps 710 mmHg 29%
    07:00 +30°C° 0 mm 2 mps 710 mmHg 28%
    08:00 +32°C° 0 mm 2 mps 710 mmHg 26%
    09:00 +32°C° 0 mm 2 mps 710 mmHg 27%
    10:00 +34°C° 0 mm 2 mps 710 mmHg 27%
    11:00 +35°C° 0 mm 2 mps 710 mmHg 27%
    12:00 +36°C° 0 mm 2 mps 710 mmHg 25%
    13:00 +36°C° 0 mm 3 mps 709 mmHg 23%
    14:00 +37°C° 0 mm 4 mps 709 mmHg 21%
    15:00 +37°C° 0.1 mm 4 mps 709 mmHg 21%
    16:00 +36°C° 0.1 mm 4 mps 708 mmHg 22%
    17:00 +36°C° 0.1 mm 4 mps 708 mmHg 23%
    18:00 +35°C° 0 mm 3 mps 709 mmHg 24%
    19:00 +34°C° 0 mm 3 mps 709 mmHg 26%
    20:00 +32°C° 0 mm 2 mps 710 mmHg 28%
    21:00 +32°C° 0 mm 2 mps 710 mmHg 29%
    22:00 +31°C° 0 mm 2 mps 710 mmHg 29%
    23:00 +31°C° 0 mm 2 mps 710 mmHg 30%

    Day after tomorrow, 27 May, Sunday

    Time Temperature Precipitation Wind Pressure Humidity
    00:00 +31°C° 0 mm 3 mps 710 mmHg 31%
    01:00 +30°C° 0 mm 3 mps 710 mmHg 32%
    02:00 +30°C° 0 mm 3 mps 709 mmHg 33%
    03:00 +29°C° 0 mm 3 mps 709 mmHg 36%
    04:00 +29°C° 0 mm 3 mps 709 mmHg 39%
    05:00 +28°C° 0 mm 3 mps 709 mmHg 41%
    06:00 +29°C° 0 mm 3 mps 710 mmHg 39%
    07:00 +30°C° 0 mm 4 mps 710 mmHg 37%
    08:00 +32°C° 0 mm 4 mps 710 mmHg 34%
    09:00 +33°C° 0 mm 4 mps 710 mmHg 33%
    10:00 +34°C° 0 mm 4 mps 711 mmHg 31%
    11:00 +35°C° 0 mm 4 mps 711 mmHg 30%
    12:00 +35°C° 0.1 mm 4 mps 710 mmHg 29%
    13:00 +35°C° 0.1 mm 4 mps 710 mmHg 27%
    14:00 +36°C° 0.1 mm 3 mps 710 mmHg 26%
    15:00 +36°C° 0.2 mm 3 mps 710 mmHg 27%
    16:00 +35°C° 0.2 mm 3 mps 710 mmHg 27%
    17:00 +35°C° 0.2 mm 3 mps 709 mmHg 27%
    18:00 +34°C° 0.2 mm 3 mps 710 mmHg 29%
    19:00 +33°C° 0.2 mm 3 mps 710 mmHg 31%
    20:00 +31°C° 0.2 mm 2 mps 710 mmHg 33%
    21:00 +31°C° 0.2 mm 2 mps 710 mmHg 34%
    22:00 +31°C° 0.2 mm 2 mps 710 mmHg 34%
    23:00 +30°C° 0.2 mm 2 mps 710 mmHg 35%

    28 May, Monday

    Time Temperature Precipitation Wind Pressure Humidity
    00:00 +30°C° 0.3 mm 3 mps 710 mmHg 36%
    01:00 +30°C° 0.3 mm 3 mps 710 mmHg 37%
    02:00 +29°C° 0.3 mm 3 mps 710 mmHg 38%
    03:00 +29°C° 0.5 mm 3 mps 710 mmHg 40%
    04:00 +29°C° 0.5 mm 3 mps 710 mmHg 42%
    05:00 +28°C° 0.5 mm 3 mps 710 mmHg 44%
    06:00 +29°C° 0.4 mm 4 mps 710 mmHg 43%
    07:00 +29°C° 0.4 mm 4 mps 711 mmHg 42%
    08:00 +29°C° 0.4 mm 5 mps 711 mmHg 41%
    09:00 +29°C° 0.1 mm 4 mps 711 mmHg 41%
    10:00 +30°C° 0.1 mm 4 mps 711 mmHg 41%
    11:00 +30°C° 0.1 mm 4 mps 711 mmHg 40%
    12:00 +32°C° 0.1 mm 4 mps 710 mmHg 39%
    13:00 +32°C° 0.1 mm 4 mps 710 mmHg 37%
    14:00 +33°C° 0.1 mm 3 mps 710 mmHg 35%
    15:00 +33°C° 0.1 mm 3 mps 710 mmHg 34%
    16:00 +33°C° 0.1 mm 3 mps 709 mmHg 33%
    17:00 +32°C° 0.1 mm 2 mps 709 mmHg 32%
    18:00 +31°C° 0.1 mm 2 mps 709 mmHg 34%
    19:00 +31°C° 0.1 mm 2 mps 709 mmHg 35%
    20:00 +30°C° 0.1 mm 2 mps 710 mmHg 36%
    21:00 +30°C° 0.2 mm 2 mps 710 mmHg 37%
    22:00 +29°C° 0.2 mm 2 mps 710 mmHg 38%
    23:00 +29°C° 0.2 mm 2 mps 710 mmHg 38%

    29 May, Tuesday

    Time Temperature Precipitation Wind Pressure Humidity
    00:00 +29°C° 0.1 mm 2 mps 710 mmHg 39%
    01:00 +28°C° 0.1 mm 3 mps 709 mmHg 40%
    02:00 +28°C° 0.1 mm 3 mps 709 mmHg 40%
    03:00 +28°C° 0 mm 3 mps 709 mmHg 42%
    04:00 +28°C° 0 mm 3 mps 709 mmHg 43%
    05:00 +27°C° 0 mm 3 mps 709 mmHg 44%
    06:00 +28°C° 0 mm 3 mps 710 mmHg 42%
    07:00 +29°C° 0 mm 3 mps 710 mmHg 40%
    08:00 +30°C° 0 mm 3 mps 710 mmHg 39%
    09:00 +30°C° 0 mm 3 mps 710 mmHg 36%
    10:00 +31°C° 0 mm 3 mps 710 mmHg 34%
    11:00 +33°C° 0 mm 3 mps 710 mmHg 32%
    12:00 +34°C° 0 mm 4 mps 709 mmHg 30%
    13:00 +34°C° 0 mm 4 mps 709 mmHg 28%
    14:00 +35°C° 0 mm 4 mps 709 mmHg 26%
    15:00 +35°C° 0 mm 4 mps 709 mmHg 26%
    16:00 +35°C° 0 mm 4 mps 709 mmHg 25%
    17:00 +35°C° 0 mm 4 mps 709 mmHg 25%
    18:00 +34°C° 0 mm 4 mps 709 mmHg 27%
    19:00 +33°C° 0 mm 4 mps 709 mmHg 29%
    20:00 +31°C° 0 mm 3 mps 710 mmHg 31%
    21:00 +30°C° 0 mm 4 mps 710 mmHg 35%
    22:00 +30°C° 0 mm 4 mps 709 mmHg 40%
    23:00 +29°C° 0 mm 4 mps 709 mmHg 44%

    30 May, Wednesday

    Time Temperature Precipitation Wind Pressure Humidity
    00:00 +28°C° 0 mm 4 mps 709 mmHg 48%
    01:00 +28°C° 0 mm 4 mps 709 mmHg 53%
    02:00 +27°C° 0 mm 4 mps 709 mmHg 57%
    03:00 +27°C° 0 mm 4 mps 709 mmHg 59%
    04:00 +26°C° 0 mm 4 mps 709 mmHg 62%
    05:00 +26°C° 0 mm 4 mps 709 mmHg 64%
    06:00 +27°C° 0 mm 4 mps 710 mmHg 60%
    07:00 +27°C° 0 mm 4 mps 710 mmHg 57%
    08:00 +28°C° 0 mm 4 mps 710 mmHg 53%
    09:00 +29°C° 0 mm 4 mps 710 mmHg 50%
    10:00 +30°C° 0 mm 4 mps 710 mmHg 47%
    11:00 +30°C° 0 mm 3 mps 710 mmHg 44%
    12:00 +31°C° 0 mm 3 mps 710 mmHg 42%
    13:00 +31°C° 0 mm 3 mps 710 mmHg 40%
    14:00 +33°C° 0 mm 3 mps 709 mmHg 38%
    15:00 +33°C° 0 mm 3 mps 709 mmHg 37%
    16:00 +33°C° 0 mm 3 mps 709 mmHg 37%
    17:00 +33°C° 0 mm 3 mps 709 mmHg 37%
    18:00 +31°C° 0 mm 2 mps 710 mmHg 38%
    19:00 +30°C° 0 mm 2 mps 710 mmHg 40%
    20:00 +30°C° 0 mm 2 mps 710 mmHg 41%
    21:00 +29°C° 0 mm 2 mps 710 mmHg 41%
    22:00 +29°C° 0 mm 2 mps 711 mmHg 42%
    23:00 +29°C° 0 mm 2 mps 711 mmHg 43%
    Show more